Showing default

METEOR 3M, 27001

Orbit data source: Space-Track

METEOR 3M, 27001 is a Commonwealth of Independent States-origin payload satellite in SSO that was launched on Mon, 10 Dec 2001 UTC via a ZENIT-2 launch vehicle from the Tyuratam Missile And Space Complex (TTMTR). Payload-class satellites include a variety of spacecraft equipped with specific instruments for various scientific and technological missions. These include communications satellites like Starlink; space stations such as the ISS; scientific satellites like the Hubble; Earth observation satellites from companies like Planet Labs, Umbra, and HawkEye 360; GPS; miniature CubeSats for education and research; and military/defense satellites.

Loading next visibility...
Identifier
27001, 2001-056A
Orbit
SSO
Country
Flag of CISCIS
Related business
Manufacturer
VNIIEM
Mission
Civil Weather
Bus & Motor
METEOR-3, Unknown motor
Mass
2,476 kg wet, ~2,300 kg dry
Launch date (UTC)
2001-12-10 (24 years ago)
Launch vehicle
ZENIT-2
Launch site
Tyuratam Missile And Space Complex (TTMTR)
Object type
Payload
Rocket body
Debris
Shape & HBR
Cyl + 2 Pan, 7.0 m
Radar Cross Section
26.744 m², Large (>1 m²)

Expand to show TLE details & history
Last TLE update: 11 hours ago

TLE from 11 hours ago
0 METEOR 3M
1 27001U 01056A   25310.24661178 -.00000002  00000-0  51790-4 0  9997
2 27001  99.8164 127.6328 0014193  49.4821 123.7000 13.69026621194377
Epoch: 2025-11-06T05:55Z
TLE epoch observation values (Epoch: 2025-11-06T05:55:07.257Z)
Latitude
6.511°
Longitude
174.27054°
Altitude
1,011.091 km
Speed
7.344 km/s
True Right ascension
20h 35m 02s
True Declination
6° 28' 25"
Sunlit
Object was in daylight at epoch
Visualization orbit readout
Latitude
Unknown
Longitude
Unknown
Altitude
Unknown
Speed
Unknown
Apparent Right ascension
Unknown
Apparent Declination
Unknown
Sunlit
N/A
Visualization observer readout
Local Sidereal Time
13:05:27
Azimuth
Unknown
Elevation
Unknown
Doppler factor
Unknown
Orbital elements
Apogee altitude
1,010.822 km
Perigee altitude
989.877 km
Semi-major axis
7,378.487 km
Eccentricity
0.00142
Inclination
99.8164°
RAAN
127.6328°
Arg. of periapsis
49.4821°
True anomaly
123.83518°
Mean anomaly
123.7°
Eccentric anomaly
123.7676°
Mean motion
3.42446 °/min
Orbital period
105.13 mins
BSTAR
0.00005179
Loading maneuver chart data...
Computing Atmospheric mass density...
Loading historical data...
Loading historical data...
Loading historical data...
Loading historical data...
Loading historical data...
Loading historical data...
Loading historical data...

Documentation

Showing up to 5 results
|